#timestamp,LO_Frequency,Hit,StdDev 
1508695215.5,286047038.0,N
1508695235.4,286047033.3,N
1508695255.2,286047033.4,N
1508695275.0,286047034.5,N
1508695275.9,286047034.5,N
1508695295.8,286047033.6,N
1508695315.6,286047034.9,N
1508695335.4,286047033.7,N
1508695355.3,286047033.8,N
1508695375.1,286047035.0,Y
1508695395.9,286047013.6,P
1508695415.7,286047011.8,N
1508695435.5,286047010.5,N
1508695455.4,286047007.5,N
1508695475.2,286047005.9,N
1508695495.0,286047006.3,N
1508695495.9,286047006.3,N
1508695515.8,286047006.6,N
1508695535.6,286047005.8,N
1508695555.4,286047003.3,N
1508695575.3,286047001.5,N
1508695595.1,286047002.4,N
1508695596.0,286047002.4,N
1508695615.8,286047002.5,N
1508695635.7,286047002.6,N
1508695655.5,286046999.8,N
1508695675.3,286047002.1,N
1508695695.2,286047005.9,N
1508695715.0,286047003.5,N
1508695715.9,286047003.5,N
1508695735.7,286047000.0,N
1508695755.6,286047005.9,N
1508695775.4,286047001.8,N
1508695795.2,286046996.8,N
1508695815.1,286046994.7,N
1508695816.0,286046994.7,N
1508695835.8,286046989.0,N
1508695855.7,286046985.9,N
1508695875.5,286046982.3,N
1508695895.3,286046981.8,N
1508695915.1,286046977.4,N
1508695935.9,286046978.5,N
1508695955.7,286046975.7,N
1508695975.5,286046976.5,N
1508695995.4,286046976.5,N
1508696015.2,286046978.2,N
1508696035.0,286046978.2,N
1508696036.0,286046978.2,N
1508696055.8,286046978.6,N
1508696075.6,286046974.9,N
1508696095.5,286046975.3,N
1508696115.3,286046973.3,N
1508696135.1,286046973.1,N
1508696155.9,286046975.5,N
1508696175.7,286046974.7,N
1508696195.5,286046976.3,N
1508696215.4,286046977.1,N
1508696235.2,286046974.9,N
1508696255.0,286046975.2,N
1508696255.9,286046975.2,N
1508696275.8,286046972.5,N
1508696295.6,286046973.6,N
1508696315.4,286046973.5,Y
1508696335.3,286046992.6,P
1508696355.1,286046992.2,N
1508696375.8,286046990.9,N
1508696395.7,286046991.5,N
1508696415.5,286046990.8,N
1508696435.3,286046993.1,N
1508696455.2,286046990.8,N
1508696475.9,286046994.6,N
1508696495.7,286046993.8,N
1508696515.6,286046995.2,N
1508696535.4,286046993.4,N
1508696555.2,286046994.7,N
1508696575.1,286046993.5,N
1508696576.0,286046993.5,N
1508696595.8,286046993.9,N
1508696615.6,286046994.1,N
1508696635.5,286046992.3,N
1508696655.3,286046992.4,N
1508696675.1,286046992.1,N
1508696695.9,286046991.0,N
1508696715.7,286046996.1,N
1508696735.6,286047004.4,N
1508696755.4,286047003.0,N
1508696775.2,286047010.4,N
1508696795.1,286047016.6,Y
1508696796.0,286047016.6,P
1508696815.8,286047024.7,N
1508696835.6,286047022.7,N
1508696855.5,286047024.3,N
1508696875.3,286047027.3,N
1508696895.1,286047034.1,Y
1508696915.9,286047016.3,P
1508696935.7,286047016.1,P
1508696955.5,286047016.4,P
1508696975.4,286047013.2,Y
1508696995.2,286046997.8,P
1508697015.1,286046998.1,N
1508697016.0,286046998.1,N
1508697035.8,286046994.9,N
1508697055.6,286046993.6,N
1508697075.5,286046997.7,N
1508697095.3,286046994.4,N
1508697115.1,286046994.8,N
1508697135.9,286046996.6,N
1508697155.7,286046997.3,N
1508697175.5,286046999.1,N
1508697195.4,286046999.4,N
1508697215.2,286047002.1,N
1508697235.0,286047001.0,N
1508697235.9,286047001.0,N
1508697255.8,286046996.0,N
1508697275.6,286046994.7,N
1508697295.4,286046990.3,N
1508697315.3,286046988.6,N
1508697335.1,286046992.0,N
1508697355.8,286046991.7,N
1508697375.7,286046993.8,N
1508697395.5,286046994.1,N
1508697415.3,286046991.9,N
1508697435.2,286046992.6,N
1508697455.0,286046992.4,N
1508697455.9,286046992.4,N
1508697475.8,286046991.1,N
1508697495.6,286046988.1,N
1508697515.4,286046990.0,N
1508697535.2,286046991.6,N
1508697555.1,286046989.1,N
1508697556.0,286046989.1,N
1508697575.8,286046989.6,N
1508697595.7,286046987.8,Y
1508697615.5,286046996.6,P
1508697635.3,286047001.3,N
1508697655.2,286046999.1,N
1508697675.9,286046994.4,N
1508697695.7,286046987.1,Y
1508697715.6,286046989.9,P
1508697735.4,286046986.8,P
1508697755.2,286046983.5,P
1508697775.1,286046978.9,Y
1508697776.0,286046978.9,P
1508697795.8,286046989.1,N
1508697815.7,286046987.3,N
1508697835.5,286046985.6,Y
1508697855.3,286047000.4,P
1508697875.2,286046999.9,N
1508697895.0,286046999.9,N
1508697895.9,286046999.9,N
1508697915.7,286047002.3,N
1508697935.6,286047000.4,N
1508697955.4,286047001.0,N
1508697975.2,286046998.2,N
1508697995.1,286046996.9,N
1508697996.0,286046996.9,N
1508698015.8,286046996.5,N
1508698035.7,286046996.8,N
1508698055.5,286046997.7,N
1508698075.3,286046995.3,N
1508698095.2,286046997.7,N
1508698115.9,286046996.5,N
1508698135.7,286046999.3,N
1508698155.6,286046996.6,N
1508698175.4,286046998.0,N
1508698195.2,286046996.3,N
1508698215.1,286046993.4,N
1508698216.0,286046993.4,N
1508698235.8,286046995.5,N
1508698255.6,286046995.8,N
1508698275.5,286046994.5,N
1508698295.3,286046992.1,N
1508698315.1,286046991.7,N
1508698335.9,286046996.1,N
1508698355.7,286046993.7,N
1508698375.5,286046996.4,N
1508698395.4,286046992.2,N
1508698415.2,286046993.9,N
1508698435.0,286046993.3,N
1508698435.9,286046993.3,N
1508698455.8,286046996.1,N
1508698475.6,286046995.2,N
1508698495.4,286046995.8,N
1508698515.3,286046996.1,N
1508698535.1,286046997.9,N
1508698555.8,286046996.2,N
1508698575.7,286046994.4,N
1508698595.5,286046990.1,Y
1508698615.4,286047005.4,P
1508698635.2,286047013.9,N
1508698655.0,286047020.3,N
1508698655.9,286047020.3,N
1508698675.8,286047023.5,N
1508698695.6,286047023.2,N
1508698715.4,286047022.4,N
1508698735.3,286047026.6,N
1508698755.1,286047029.9,Y
1508698775.8,286047013.3,P
1508698795.7,286047013.8,P
